GFSGL_500_rhum_060.txt.gz
RH
84 90 90 77 95 66 41 31 68 58 64 97 95 96 97 96 98 96 99 95 96 98 93 67 53 44 33 20 13 14 16 17 17 20 36 53 61 65 69 68 68 70 77
81 88 94 99 96 98 92 97 96 100 100 97 92 96 97 98 96 98 98 98 100 99 100 92 61 54 19 14 15 19 22 19 20 32 55 71 68 66 62 64 70 72 78
48 56 59 77 91 82 97 95 75 46 74 98 98 95 95 97 98 97 98 99 98 89 84 73 63 20 13 15 16 19 20 20 22 35 59 75 72 68 69 77 77 76 74
27 22 17 16 40 46 47 79 87 70 65 81 93 95 74 50 81 87 90 86 89 93 76 67 33 14 16 16 20 19 22 26 34 65 77 76 74 84 82 79 79 83 86
18 24 22 11 8 11 19 48 85 90 62 68 95 96 82 72 68 89 96 96 80 56 41 29 24 17 17 18 18 22 28 42 68 91 84 87 95 92 94 95 93 81 78
13 8 16 21 21 24 26 43 73 79 77 64 66 86 86 93 82 84 89 73 61 45 31 25 17 17 17 18 23 30 44 66 82 100 100 100 100 100 98 92 88 74 74
50 21 17 14 14 14 15 33 47 68 78 87 89 77 87 100 81 94 98 85 79 38 20 17 17 18 21 22 27 37 54 85 99 100 100 100 100 100 96 91 95 87 83
40 18 14 13 18 30 34 37 55 72 77 88 73 83 89 85 84 96 86 83 36 31 24 17 19 20 22 27 35 45 79 100 100 98 95 100 100 100 96 91 91 82 81
31 20 15 12 12 27 45 35 40 54 69 77 72 75 80 89 100 100 100 39 32 32 20 17 19 21 26 34 47 63 97 100 100 100 100 100 100 100 96 92 90 81 73
36 23 20 14 14 23 33 28 28 23 26 34 44 46 47 41 60 74 27 26 35 33 22 22 25 28 34 45 61 78 100 100 100 100 100 100 99 99 100 98 96 94 92
45 29 21 18 14 16 15 19 17 14 14 14 20 22 31 47 40 21 24 32 36 36 32 30 31 35 45 68 90 100 100 100 100 100 100 100 100 100 100 100 100 100 97
48 35 29 30 17 15 14 22 37 39 28 19 22 20 21 16 19 22 28 34 37 36 33 33 37 48 63 86 100 100 100 100 100 100 100 100 100 100 100 100 100 100 100
64 53 44 41 37 25 28 35 39 43 45 38 27 21 21 20 25 29 30 29 30 31 36 44 53 70 94 100 100 100 100 100 100 100 100 100 100 100 100 100 100 100 100
100 96 82 59 66 74 69 75 82 78 70 67 56 40 33 32 30 30 32 35 41 54 79 100 100 100 100 100 100 100 100 100 100 100 100 100 100 100 100 100 100 100 100
85 80 76 94 96 91 85 96 100 100 100 100 100 97 90 76 61 70 86 91 96 98 100 100 100 100 100 100 100 100 100 100 100 100 100 100 100 100 100 100 100 100 96
96 97 97 96 97 98 99 99 100 100 100 100 100 100 100 100 100 98 97 98 100 100 100 100 100 100 100 100 99 100 100 100 100 100 100 100 100 100 100 100 100 98 65
88 96 98 97 98 95 94 100 100 97 98 100 100 100 100 100 100 100 100 100 100 100 100 100 100 96 96 99 100 100 100 100 100 100 100 100 100 100 100 100 96 39 10
96 96 100 100 84 94 92 97 90 100 100 100 100 100 100 100 100 100 100 100 100 100 100 99 100 100 100 100 100 100 100 100 100 100 100 100 100 100 100 80 17 11 11
100 98 100 100 99 100 100 100 100 100 99 83 96 100 97 94 100 100 100 98 98 99 99 100 100 100 100 100 99 99 100 100 100 100 100 100 100 91 29 11 11 12 13
99 98 97 97 97 100 100 100 99 92 82 83 68 49 45 63 80 90 92 100 99 98 100 100 100 100 100 100 100 100 100 100 100 100 100 72 22 12 12 12 13 14 16
92 72 70 29 15 27 66 71 78 65 72 86 59 62 57 54 66 87 98 99 100 100 100 100 100 100 100 100 100 100 100 99 75 19 13 12 12 12 14 14 16 20 19
30 32 31 56 82 84 91 63 82 100 100 100 100 97 94 99 100 99 99 100 100 100 100 100 100 100 97 80 52 21 12 12 12 12 12 13 14 15 16 19 19 20 20
89 99 100 100 100 100 100 100 99 100 100 100 98 100 100 100 100 100 100 100 100 100 95 79 53 28 15 10 10 10 10 12 13 14 14 16 19 21 20 20 18 19 22
61 49 52 82 100 100 100 79 94 100 100 100 100 100 100 100 100 100 100 88 66 42 22 12 9 9 9 10 11 11 12 13 14 16 19 22 22 20 17 15 16 26 52
100 100 100 100 100 100 100 100 100 100 100 100 100 100 100 95 78 47 24 13 9 8 8 8 8 9 9 10 11 13 15 17 19 20 20 18 15 13 12 20 39 70 76
100 100 100 100 100 100 100 100 100 100 96 79 52 25 14 8 8 8 8 8 9 9 9 9 9 9 10 12 14 15 16 15 14 12 11 10 10 16 34 68 81 64 49

GFSGL_500_rhum_063.txt.gz
RH
66 67 67 70 73 88 98 94 35 30 34 44 60 67 76 82 95 93 95 100 100 100 97 99 97 100 99 96 93 87 56 24 15 17 17 20 21 22 32 57 68 70 70
58 71 78 84 83 92 96 99 100 98 88 71 79 88 96 97 99 98 98 99 98 100 100 99 98 99 99 98 88 72 46 13 14 17 19 20 21 23 38 54 79 80 86
35 44 44 50 59 70 86 78 82 79 76 86 78 70 92 77 98 100 100 96 100 97 98 97 98 98 93 89 69 66 29 14 14 16 18 20 23 30 34 54 82 89 94
39 34 30 26 24 25 26 47 49 58 83 94 86 70 64 65 79 86 94 90 98 95 84 89 84 75 76 60 41 29 24 16 17 17 20 22 27 33 57 87 91 90 100
48 44 42 20 25 25 16 9 10 14 42 76 98 99 72 74 91 96 86 66 56 58 73 78 83 82 51 45 35 25 19 16 18 20 21 25 36 47 65 91 91 95 100
58 59 60 55 24 13 19 19 21 26 43 62 74 97 96 94 88 94 96 94 91 78 78 82 78 81 82 51 28 22 21 20 20 24 28 37 55 75 97 100 98 100 97
66 72 65 59 47 25 17 14 14 16 18 38 62 94 98 98 98 96 88 94 94 75 76 88 76 84 64 35 35 27 21 24 28 32 40 58 84 100 92 96 100 100 96
86 71 69 60 38 24 15 13 15 22 32 30 43 61 72 86 96 97 97 98 91 77 91 96 97 99 52 42 44 38 30 26 28 38 45 66 93 94 98 99 100 98 100
85 65 51 50 40 24 16 12 12 17 32 38 35 41 43 53 71 83 83 69 75 80 83 84 85 54 30 40 53 53 40 33 37 46 62 81 91 100 100 99 98 97 94
90 98 97 55 34 25 21 17 13 17 22 26 16 17 15 16 18 22 27 25 42 53 74 94 94 38 42 46 48 49 45 48 58 72 84 98 100 100 100 98 97 96 94
100 100 97 56 43 37 42 23 26 18 15 15 19 21 23 21 19 21 29 36 51 64 59 84 54 40 40 46 49 58 71 85 100 100 100 100 100 100 100 99 97 97 97
94 98 89 71 69 60 68 78 54 45 26 26 28 34 42 45 42 41 48 49 77 73 48 42 42 41 47 70 82 100 100 100 100 100 100 100 100 100 100 100 100 100 100
95 79 83 97 96 100 96 89 74 66 65 65 63 68 77 82 80 85 84 67 63 68 64 83 94 89 98 100 100 100 100 100 100 100 100 100 100 100 100 100 100 100 100
92 90 94 99 99 99 90 85 89 96 97 97 95 95 98 98 100 98 98 98 100 100 100 100 100 100 100 100 100 100 100 100 97 100 100 100 100 100 100 100 100 100 100
71 80 95 99 95 98 98 99 96 97 96 98 99 99 100 100 100 93 95 98 99 100 100 100 100 100 100 100 100 100 100 100 100 100 100 100 100 100 100 100 100 100 100
98 99 100 97 100 99 99 97 98 98 98 98 90 90 95 98 100 100 100 100 100 100 100 99 99 99 100 100 100 100 100 100 100 100 100 99 99 100 100 100 100 100 100
100 90 96 96 94 96 92 95 95 99 97 96 94 100 100 100 100 100 100 100 100 100 100 100 100 100 100 100 100 99 96 100 100 99 100 99 100 100 100 100 100 100 100
88 90 99 100 100 100 100 97 97 99 99 100 100 100 100 100 100 100 100 100 100 96 78 63 66 69 69 78 86 96 99 99 96 95 94 98 100 100 100 100 100 100 68
100 100 100 100 100 100 100 100 100 100 99 89 81 97 100 99 98 96 92 95 99 99 99 96 94 85 85 89 89 88 88 87 88 94 99 100 100 100 93 51 16 12 12
100 100 99 98 100 99 99 100 100 94 95 84 52 29 20 29 92 95 99 100 100 100 100 93 83 87 86 86 86 86 91 99 100 98 77 40 17 12 11 11 11 13 14
85 86 96 100 100 99 100 100 84 41 36 40 66 90 100 100 100 100 100 97 88 87 93 93 94 92 93 92 95 97 88 60 25 12 10 9 9 10 11 12 14 15 17
64 63 59 52 50 53 52 69 75 87 100 100 100 100 100 100 100 100 99 98 100 98 100 100 96 92 90 75 49 21 10 8 8 8 8 9 10 10 11 13 17 22 23
70 66 76 84 88 100 100 100 100 100 100 87 77 82 89 91 95 94 96 98 100 96 88 82 68 38 17 8 8 8 8 8 8 9 9 9 10 12 15 17 19 21 20
76 93 100 100 100 100 100 100 100 100 100 100 100 100 100 99 98 96 91 85 71 46 19 9 7 7 8 8 8 8 9 9 9 10 11 12 14 13 13 13 14 14 14
100 100 100 100 100 100 100 100 100 100 100 98 94 88 82 72 59 33 12 8 8 7 8 8 8 8 9 10 10 11 10 11 11 12 11 10 10 11 11 10 11 15 24
100 100 100 100 99 92 76 56 42 32 22 16 12 9 9 9 8 8 8 8 8 9 9 10 10 10 10 11 12 13 14 12 10 9 8 6 6 6 9 15 33 57 74

GFSGL_500_rhum_066.txt.gz
RH
33 51 54 53 51 35 65 53 82 75 44 22 42 40 45 64 65 67 70 77 77 72 76 85 94 96 91 93 96 91 99 94 97 92 76 70 46 22 14 13 15 18 20
26 30 34 54 69 82 88 83 86 88 83 75 64 54 34 54 65 71 88 93 86 100 100 98 98 98 99 97 97 99 99 99 96 84 67 50 37 19 17 15 16 20 26
37 30 29 29 29 27 24 33 56 80 91 87 75 74 77 85 62 78 90 99 96 97 98 96 99 98 97 98 98 96 98 99 88 70 40 29 28 20 19 19 21 25 34
42 32 36 34 31 26 23 21 21 24 37 46 48 71 79 89 79 73 72 70 74 79 95 98 96 98 96 90 86 88 87 84 68 55 48 31 23 21 22 22 24 28 39
62 68 54 42 40 35 20 18 22 20 17 13 13 17 45 70 90 99 86 76 76 83 95 76 62 74 63 73 73 76 76 73 71 78 47 32 34 27 22 23 26 33 38
49 52 60 53 50 41 38 29 11 15 17 18 17 21 29 52 70 91 96 96 97 94 96 98 94 91 94 75 71 77 76 75 85 75 48 48 44 36 26 26 29 37 50
65 66 61 68 75 72 61 51 44 27 18 16 15 18 18 24 43 58 99 98 98 98 98 98 95 93 94 79 81 89 93 100 100 81 40 42 44 43 41 42 52 66 82
93 73 57 75 96 79 77 72 59 34 19 14 14 18 33 49 50 59 76 82 84 96 92 84 87 91 89 85 89 80 88 98 97 55 34 39 48 55 61 73 95 100 100
87 71 78 96 83 83 56 54 50 45 26 15 14 17 28 41 40 40 53 50 49 56 44 45 56 52 47 58 84 100 100 100 100 81 37 63 70 82 100 100 100 99 100
96 86 91 88 98 88 81 69 51 37 36 34 22 15 26 35 30 22 19 25 42 24 23 29 30 29 38 44 78 100 100 100 77 36 51 96 95 100 100 100 100 100 100
98 100 99 99 99 100 93 94 42 40 51 67 63 46 23 19 18 20 21 20 22 24 29 32 32 50 57 65 87 100 97 89 57 88 99 100 93 96 100 100 100 100 100
100 99 97 91 94 98 97 100 100 99 94 97 94 88 53 48 33 26 33 44 51 51 51 59 76 93 100 100 99 98 98 97 98 100 95 87 100 100 99 100 100 100 100
96 100 99 100 100 99 100 100 97 97 95 99 91 96 81 77 80 92 84 79 92 94 97 93 99 100 100 96 94 88 90 100 100 100 100 99 100 99 100 100 100 100 100
89 94 97 98 98 95 98 99 96 97 99 95 85 94 92 90 99 99 98 89 81 96 100 99 100 98 89 90 100 100 100 100 100 100 100 99 99 99 100 100 100 100 100
100 90 82 94 95 94 94 98 100 100 100 95 94 96 98 100 98 99 95 100 99 99 96 94 89 79 95 100 100 100 100 100 100 98 97 99 96 87 91 98 98 98 100
92 91 90 79 81 84 79 95 97 100 99 96 99 90 94 96 88 84 93 97 97 92 83 80 88 99 99 100 100 99 95 97 100 100 100 92 80 88 93 95 98 96 96
91 96 100 100 100 100 100 100 99 96 96 97 99 100 100 100 98 100 100 100 100 100 100 100 100 100 100 100 99 100 100 100 100 94 87 80 88 93 92 95 92 92 98
91 100 100 98 98 99 100 98 100 100 100 100 100 100 100 100 100 100 100 100 100 100 100 92 82 54 89 100 100 97 99 90 76 77 89 91 91 90 84 82 82 64 30
100 100 100 100 100 100 100 100 100 100 100 100 100 100 100 100 100 99 98 97 92 89 80 68 68 94 100 100 100 100 99 92 88 90 86 81 77 73 61 30 10 8 8
100 99 98 100 100 98 100 100 100 100 100 100 100 100 100 100 100 100 95 73 74 98 100 100 100 100 100 99 96 90 89 93 89 80 70 60 36 12 7 7 7 8 8
98 98 100 100 99 100 96 78 79 73 80 99 100 100 94 79 94 100 100 100 100 100 100 100 93 91 89 98 100 94 85 72 52 32 10 7 7 7 7 7 8 9 10
79 81 82 88 91 95 96 92 80 75 77 93 96 100 100 100 100 100 100 100 100 98 100 98 95 96 92 72 53 36 19 10 8 8 7 7 7 8 8 9 9 10 12
89 89 90 86 86 87 81 78 86 91 100 100 100 100 100 100 100 100 100 100 99 93 75 53 36 24 17 13 10 9 8 7 7 7 8 8 8 8 8 10 12 11 11
100 100 97 88 85 83 81 86 94 98 99 99 100 100 100 98 96 91 62 33 23 17 12 9 7 7 7 7 7 7 7 8 8 8 8 9 10 11 10 9 8 8 8
100 100 100 100 100 100 100 100 100 100 100 100 100 98 90 63 26 27 23 14 9 8 8 7 7 8 8 8 8 9 10 10 10 12 12 11 10 8 7 5 4 5 8
100 100 100 100 100 100 100 99 96 88 73 56 39 34 37 32 19 10 9 8 7 7 8 8 8 8 9 11 12 13 13 15 15 13 11 10 9 7 6 8 12 21 34

GFSGL_500_rhum_072.txt.gz
RH
18 18 27 36 42 40 33 26 20 19 18 19 21 22 21 24 39 40 42 46 48 50 52 58 71 87 84 83 75 93 96 77 70 74 95 100 99 96 96 97 99 97 98
21 22 22 22 29 36 46 52 50 45 55 45 47 61 60 54 26 22 36 27 29 54 60 58 61 62 58 64 73 90 74 79 86 86 95 90 95 96 92 94 93 96 92
27 24 25 27 32 32 26 22 28 39 48 48 44 49 57 61 63 35 50 64 66 43 40 51 63 65 66 76 87 84 69 82 84 82 96 88 100 100 99 95 91 99 99
33 33 31 38 42 38 28 27 25 24 23 24 22 20 20 32 66 68 53 57 63 62 68 71 70 72 67 81 87 74 71 80 86 84 90 72 80 99 96 99 97 97 81
52 41 42 49 46 34 35 34 35 36 30 29 30 27 20 16 16 18 17 16 19 34 53 67 72 81 93 100 99 99 98 99 98 96 92 87 85 98 98 97 98 82 42
69 57 44 45 49 50 48 51 57 38 34 42 36 37 40 30 15 11 11 13 16 18 17 17 20 25 37 52 72 83 98 98 95 97 100 92 97 98 80 83 100 49 47
79 82 73 53 46 57 65 72 66 63 62 43 44 48 48 47 47 42 35 23 16 14 14 14 16 22 42 62 74 86 95 96 97 97 97 95 90 74 74 98 94 98 100
99 98 95 73 61 51 60 65 77 87 65 58 67 63 54 50 43 49 54 55 46 30 18 14 14 21 44 59 64 58 54 63 71 84 67 60 38 28 28 46 38 90 100
79 95 92 73 70 60 59 98 98 94 86 76 69 75 70 89 85 89 90 62 43 41 48 54 47 29 21 26 34 40 43 39 39 33 33 80 32 28 38 47 58 92 100
70 71 74 81 67 63 78 70 83 98 100 98 67 58 57 69 79 93 100 96 87 76 83 77 79 82 82 59 38 32 29 29 27 30 32 35 35 41 100 96 99 98 100
98 99 92 77 68 88 92 89 84 83 83 92 89 70 71 66 84 97 100 100 94 91 94 93 92 87 80 75 79 77 74 63 55 59 63 77 86 100 100 99 100 100 100
88 93 98 95 94 97 98 99 94 89 96 94 92 92 96 94 94 79 76 92 95 99 95 95 88 86 99 85 70 80 80 81 93 97 98 100 100 99 100 100 100 100 100
38 55 77 91 97 95 93 86 97 97 96 87 85 91 80 73 80 78 83 79 96 98 99 97 98 92 96 99 93 87 97 92 97 97 100 100 100 97 91 99 100 100 100
48 53 56 62 78 81 93 98 100 100 100 97 93 100 98 98 98 98 98 94 90 96 100 100 98 100 99 99 97 97 99 99 100 100 100 100 100 100 100 100 100 98 97
23 31 40 60 75 93 99 92 86 88 99 100 100 94 86 82 77 90 99 99 99 98 98 99 98 100 100 100 100 100 100 100 100 100 100 100 100 100 100 100 100 100 98
8 12 21 39 58 77 72 72 92 88 87 84 71 96 89 90 88 88 84 72 83 81 74 73 90 100 100 100 100 100 100 100 100 100 100 100 100 100 100 100 94 94 91
9 31 35 39 52 81 86 68 48 84 97 100 95 98 76 84 100 93 92 95 98 99 100 100 100 100 100 100 100 100 100 100 100 100 100 100 100 99 98 91 86 76 76
70 41 34 77 74 69 98 100 100 97 100 99 100 100 100 99 93 99 98 99 98 100 100 100 100 100 100 100 100 100 100 100 100 100 100 99 95 86 90 86 85 83 76
54 92 86 74 88 92 90 93 99 99 100 98 100 100 100 100 100 100 100 100 100 100 100 100 100 99 98 98 98 99 99 99 97 95 96 93 93 92 84 79 75 72 65
63 92 100 97 88 96 93 82 87 97 96 98 100 100 100 100 98 99 100 100 100 100 100 100 100 97 93 93 94 92 97 98 95 98 98 95 86 82 72 60 40 19 11
100 99 95 100 95 92 79 71 69 74 86 89 92 98 99 97 97 100 100 100 100 100 100 100 100 100 100 100 98 97 98 95 92 84 75 61 38 25 12 10 8 7 6
94 100 99 90 81 81 93 86 81 80 77 83 89 96 100 99 100 100 98 98 99 100 99 97 98 100 100 97 90 85 83 70 47 33 21 14 10 8 7 6 6 6 6
100 100 100 100 99 88 84 84 82 82 87 98 100 100 100 100 100 99 96 99 99 100 95 92 92 87 80 72 59 37 21 13 11 10 8 7 6 6 7 8 9 10 10
100 100 100 100 100 100 100 100 91 90 89 92 95 98 99 100 100 99 95 91 86 78 66 51 35 21 16 14 12 10 8 8 7 7 7 8 8 10 10 11 12 13 12
100 100 100 100 100 100 96 93 91 91 92 92 91 88 85 83 78 67 50 34 23 18 16 14 13 11 9 8 9 8 8 8 8 9 10 11 11 12 15 16 13 12 16
96 97 98 99 100 100 100 98 93 87 80 72 60 45 31 23 21 19 17 16 14 12 10 10 10 9 10 10 10 10 9 10 11 12 13 15 18 18 16 14 18 31 38

GFSGL_500_rhum_075.txt.gz
RH
22 18 18 20 29 32 34 28 20 16 15 15 17 22 26 28 24 30 40 36 37 54 60 60 83 89 92 96 86 74 77 79 65 73 80 97 88 80 78 86 90 95 93
23 24 22 21 23 28 34 40 47 52 46 40 45 35 43 61 60 58 34 46 53 50 50 50 52 56 58 66 72 82 82 80 65 64 75 91 79 88 76 88 91 92 91
25 21 24 23 24 26 27 27 26 23 23 34 44 52 54 52 54 60 60 57 33 42 44 48 50 47 62 72 80 81 83 80 72 71 82 69 82 91 94 86 92 91 92
35 35 27 28 28 31 32 34 24 25 24 24 24 26 26 22 20 20 39 70 69 64 62 67 73 74 59 69 82 84 97 93 95 90 88 83 87 80 86 92 95 97 98
48 47 48 39 38 36 38 43 37 28 28 32 28 25 23 26 27 24 18 17 19 20 20 19 18 23 46 56 49 45 52 56 64 63 64 68 74 85 94 98 98 99 94
40 51 50 54 52 43 37 39 44 44 48 54 42 30 34 45 50 41 40 29 16 14 15 17 19 19 20 23 23 24 22 19 21 32 52 62 67 69 94 97 85 86 78
80 51 53 53 53 53 48 40 44 50 55 70 69 56 52 42 43 57 57 53 51 48 45 45 43 38 26 18 15 15 16 17 34 50 51 52 46 37 35 48 99 54 94
96 97 94 83 65 57 55 55 37 36 45 55 76 93 85 68 52 42 48 40 36 46 42 37 35 38 41 39 34 36 41 51 49 43 37 27 24 25 24 28 29 25 34
82 86 92 91 100 91 99 100 71 43 43 52 80 100 97 85 76 74 74 66 62 72 68 70 76 78 91 95 90 95 93 81 78 84 85 79 72 58 55 57 60 80 93
91 80 73 78 88 86 92 91 99 94 97 93 92 95 77 99 100 100 98 82 76 72 70 78 88 92 95 98 99 98 100 97 90 79 77 79 83 66 65 94 96 77 88
100 98 86 79 75 76 84 94 92 93 91 90 97 98 99 96 87 84 92 97 82 78 82 81 77 75 85 95 100 99 98 98 99 100 89 84 70 92 80 78 86 83 100
80 78 62 60 74 74 72 81 81 99 100 97 96 100 100 87 86 68 82 86 75 94 83 85 89 78 68 81 96 100 98 97 99 100 97 98 87 92 87 85 100 98 95
51 46 40 38 40 33 32 35 52 82 79 88 98 99 99 98 94 80 79 81 85 95 100 94 94 95 97 82 98 99 99 98 99 100 100 97 99 89 99 99 100 100 100
13 13 19 26 28 32 32 30 28 37 63 72 73 88 90 94 99 76 96 85 88 86 100 98 85 88 98 98 99 99 98 99 100 99 100 100 100 97 100 100 100 100 100
7 6 7 6 7 13 22 43 63 56 51 60 63 64 96 95 87 81 76 95 91 97 81 82 100 83 89 100 98 98 90 87 93 95 98 100 100 100 100 100 100 100 100
7 7 6 6 6 5 6 6 9 18 33 56 80 80 79 76 68 100 100 100 77 89 92 100 99 100 99 96 83 92 97 100 100 100 100 100 100 100 100 99 100 100 100
9 9 8 7 6 6 6 7 8 11 14 18 28 55 85 89 100 98 100 98 93 86 99 100 100 100 96 100 100 100 100 100 100 100 100 100 100 100 100 100 100 100 100
14 12 10 9 8 8 8 15 55 54 24 84 90 68 72 100 100 100 98 99 100 98 100 100 100 100 100 100 100 100 100 100 100 100 100 100 99 98 98 98 99 97 91
16 16 15 14 13 11 11 10 17 51 72 66 78 91 100 87 94 99 100 100 99 99 100 96 100 99 100 100 100 100 100 100 99 98 98 97 98 97 91 83 79 75 67
16 17 17 18 21 21 62 72 81 92 95 100 97 92 96 88 86 90 96 98 100 100 98 100 100 99 98 97 98 97 95 92 90 92 92 85 81 76 72 64 54 43 30
60 68 70 73 70 60 95 100 94 100 100 100 100 100 100 100 100 99 96 99 89 82 76 85 82 81 88 87 90 83 80 77 77 75 71 64 64 54 42 24 17 13 10
91 89 82 84 81 90 100 100 100 100 100 100 97 94 99 100 98 99 100 100 97 96 98 96 90 90 85 79 77 76 75 70 63 51 35 21 15 13 11 9 8 7 6
99 91 95 95 100 99 100 100 100 100 100 100 100 100 100 99 97 90 88 90 91 89 86 83 79 78 72 66 54 36 22 17 15 14 11 10 9 8 8 8 8 8 9
99 99 97 100 100 100 100 100 100 100 100 99 100 98 98 98 93 87 83 83 80 73 65 50 35 24 20 17 16 14 11 10 9 9 10 10 10 9 10 10 11 12 12
100 100 100 98 96 98 98 98 98 95 92 89 88 92 92 91 93 84 75 63 50 34 26 21 19 17 15 13 11 10 10 11 11 11 11 10 11 11 12 13 14 16 16
100 100 100 100 100 99 98 96 93 87 83 78 76 76 72 66 52 35 25 20 19 17 14 13 11 10 11 12 12 12 12 12 12 12 12 12 14 15 17 20 20 18 18

GFSGL_500_rhum_078.txt.gz
RH
23 16 16 17 18 26 28 20 16 16 17 17 19 20 26 33 35 34 32 43 48 66 86 87 92 97 98 97 96 95 85 82 65 90 82 86 86 86 84 89 94 85 69
30 26 24 20 19 22 31 38 42 44 45 45 33 30 29 26 30 47 54 55 38 39 48 57 79 90 89 92 92 80 87 78 53 52 74 77 68 73 76 75 85 70 79
30 31 28 26 23 22 20 22 26 29 29 34 42 52 57 58 57 51 53 57 64 66 47 52 55 49 44 43 47 52 54 58 52 48 53 62 59 60 74 88 96 96 94
38 37 39 29 27 27 30 34 29 28 22 24 23 22 22 24 27 27 24 21 20 41 71 51 45 56 68 73 70 66 57 51 55 64 66 64 70 61 71 81 67 59 74
38 42 39 42 40 33 36 38 36 39 34 27 28 29 31 29 27 27 27 24 19 18 19 39 52 39 22 20 28 51 70 68 72 70 56 34 24 24 22 33 54 65 63
66 62 47 53 52 50 42 37 40 43 43 43 42 45 48 48 39 38 36 41 35 32 25 18 18 18 19 21 20 20 19 18 17 16 15 14 14 15 17 34 30 23 26
100 98 88 63 60 59 60 59 55 50 41 36 43 47 60 81 82 71 64 54 46 42 50 50 47 51 54 55 57 53 52 48 43 41 32 39 51 63 69 60 76 81 74
72 68 98 98 99 97 96 91 89 82 71 64 62 52 41 55 68 96 98 82 61 59 49 52 51 56 56 62 56 57 59 47 48 59 89 89 92 83 81 78 77 72 70
84 84 87 96 100 100 98 98 97 97 100 100 97 95 72 69 66 69 88 86 79 85 72 64 60 58 62 76 84 83 84 89 91 87 84 90 86 89 95 96 89 87 97
90 88 82 83 85 93 100 99 99 98 98 98 97 96 98 97 96 98 98 94 83 80 86 91 89 72 70 76 77 84 88 94 88 80 80 79 79 80 90 94 91 93 99
88 82 84 74 77 89 97 100 98 91 100 100 99 98 96 96 97 99 99 99 98 96 94 90 89 81 79 80 80 89 99 100 99 90 74 83 81 86 98 98 99 99 100
77 66 63 60 62 73 72 74 70 68 73 82 98 100 99 93 100 98 97 98 99 99 97 95 83 72 70 72 77 80 86 100 84 91 96 89 97 97 99 100 98 96 96
46 43 42 43 45 44 42 40 34 33 34 40 45 45 45 51 75 100 100 98 100 100 98 95 90 87 88 98 95 90 100 100 93 95 99 100 98 100 95 99 98 91 91
58 50 37 23 28 32 36 39 38 36 32 33 32 31 31 34 37 35 45 96 94 67 75 99 98 80 72 82 99 98 98 99 79 100 99 99 99 97 98 100 100 100 99
33 21 10 7 7 7 7 7 7 7 6 6 6 8 10 14 14 18 28 38 41 51 49 79 89 90 63 91 100 100 100 94 100 97 99 100 100 99 99 99 100 99 100
9 9 8 8 8 8 8 8 8 7 6 6 6 5 5 5 6 6 7 8 14 21 42 70 86 82 64 60 81 100 100 100 100 100 98 100 100 100 100 100 100 100 100
13 12 12 12 12 11 11 10 8 8 7 7 6 6 6 5 6 14 25 19 16 32 44 62 93 100 100 100 100 100 99 100 100 100 99 100 100 100 100 100 99 99 98
17 18 18 17 15 13 12 11 10 10 10 9 8 8 8 7 7 9 35 50 59 84 91 94 81 88 93 100 100 99 100 100 100 100 100 100 100 100 98 98 100 98 90
20 19 18 16 16 15 14 14 14 14 14 14 15 14 16 19 25 46 85 95 100 97 100 100 100 100 100 100 100 100 100 100 100 100 99 99 100 100 89 84 80 73 68
14 12 11 10 10 11 13 17 28 38 46 53 46 40 98 100 100 100 100 100 100 100 100 100 100 100 100 100 100 100 96 90 86 88 88 94 88 83 80 73 64 62 56
14 16 18 19 33 48 51 80 84 71 78 83 87 78 81 100 100 99 100 100 100 100 100 100 100 99 94 88 82 78 78 75 69 72 83 82 76 67 62 57 43 34 21
44 33 26 26 37 51 72 79 88 85 88 90 94 100 100 100 100 100 100 100 100 100 100 100 100 99 99 96 91 87 85 82 80 72 61 49 38 28 21 17 14 11 10
65 67 55 51 55 61 66 86 97 94 89 97 100 100 100 100 100 99 100 100 100 100 100 100 98 96 90 84 76 66 56 43 32 24 21 18 15 12 10 10 10 10 10
76 82 86 86 86 88 92 98 100 100 100 99 100 100 99 99 99 99 98 93 93 91 87 85 82 77 70 59 48 37 26 19 17 15 13 11 10 10 11 12 11 11 10
78 86 90 93 91 93 98 99 98 98 100 100 100 100 96 92 89 87 82 75 66 58 49 41 34 28 22 20 18 17 14 12 11 12 13 12 13 13 12 12 12 12 13
78 93 99 100 100 100 100 100 100 100 100 100 100 96 75 49 36 28 25 23 22 21 19 17 15 13 13 12 12 13 14 14 15 16 15 15 14 14 14 15 16 18 21